Frankfort, MI

8:34 PM EST on February 10, 2016 (GMT -0500)
Frankfort

Weather History for KFKS - January, 2014

Change the Weather History Date:

Saturday, January 4, 2014

  Actual Average (KTVC) Record (KTVC)
Temperature  
Mean Temperature 26 °F 22 °F  
Max Temperature 32 °F 28 °F 49 °F (2007)
Min Temperature 21 °F 17 °F -8 °F (1981)
Degree Days  
Heating Degree Days 38 43  
Month to date heating degree days 169  
Since 1 July heating degree days 2977  
Moisture  
Dew Point 24 °F    
Average Humidity 80    
Maximum Humidity 92    
Minimum Humidity 73    
Precipitation  
Precipitation 0.00 in 0.10 in 1.76 in (1997)
Month to date precipitation 0.38  
Year to date precipitation 0.38  
Sea Level Pressure  
Sea Level Pressure 29.78 in    
Wind  
Wind Speed 15 mph (WSW)    
Max Wind Speed 26 mph    
Max Gust Speed 43 mph    
Visibility 7 miles    
Events Snow    
T = Trace of Precipitation, MM = Missing Value Source: NWS Daily Summary

Daily Weather History Graph

Daily Weather History Graph

Search for Another Location

Airport or City:

Trip Planner

Search our weather history database for the weather conditions in past years. The results will help you decide how hot, cold, wet, or windy it might be!

Date:

Astronomy

Jan. 04, 2014 Rise Set
Actual Time 8:21 AM EST 5:18 PM EST
Civil Twilight 7:48 AM EST 5:51 PM EST
Nautical Twilight 7:11 AM EST 6:28 PM EST
Astronomical Twilight 6:36 AM EST 7:03 PM EST
Moon 10:16 AM EST (1/4) 9:48 PM EST (1/4)
Length of Visible Light 10h 02m
Length of Day
8h 56m
Waxing Crescent, 15% of the Moon is Illuminated
Jan 4
Waxing Crescent
Jan 7
First Quarter
Jan 15
Full
Jan 24
Last Quarter
Jan 30
New

Hourly Weather History & Observations

Time (EST) Temp. Windchill Dew Point Humidity Pressure Visibility Wind Dir Wind Speed Gust Speed Precip Events Conditions
12:14 AM 21.2 °F 7.3 °F 14.9 °F 77% 29.78 in 7.0 mi South 16.1 mph 29.9 mph N/A   Overcast
12:35 AM 21.7 °F 6.7 °F 15.8 °F 78% 29.77 in 5.0 mi South 19.6 mph 28.8 mph N/A   Haze
12:55 AM 22.1 °F 9.5 °F 16.2 °F 78% 29.76 in 10.0 mi South 13.8 mph 21.9 mph N/A   Overcast
1:15 AM 22.3 °F 9.2 °F 16.5 °F 79% 29.74 in 10.0 mi South 15.0 mph 23.0 mph N/A   Overcast
1:35 AM 23.0 °F 9.6 °F 17.4 °F 79% 29.73 in 10.0 mi South 16.1 mph 20.7 mph N/A   Overcast
1:55 AM 23.0 °F 10.6 °F 17.4 °F 79% 29.72 in 10.0 mi South 13.8 mph 26.5 mph N/A   Overcast
2:15 AM 23.9 °F 10.8 °F 18.5 °F 80% 29.71 in 10.0 mi SSE 16.1 mph 23.0 mph N/A   Overcast
2:35 AM 25.9 °F 14.3 °F 21.0 °F 82% 29.70 in 10.0 mi South 13.8 mph 25.3 mph N/A   Overcast
2:55 AM 28.9 °F 15.8 °F 23.9 °F 81% 29.70 in 5.0 mi South 20.7 mph 31.1 mph N/A   Haze
3:15 AM 30.0 °F 18.3 °F 24.6 °F 80% 29.70 in 4.0 mi SSW 17.3 mph 35.7 mph N/A   Haze
3:35 AM 30.2 °F 18.5 °F 25.0 °F 81% 29.69 in 3.0 mi SSW 17.3 mph 31.1 mph N/A Snow Light Snow
3:56 AM 30.9 °F 19.1 °F 25.3 °F 80% 29.68 in 5.0 mi SSW 18.4 mph 35.7 mph N/A   Haze
4:16 AM 31.3 °F 18.2 °F 24.8 °F 77% 29.67 in 2.5 mi SSW 23.0 mph 42.6 mph N/A Snow Light Snow
4:36 AM 31.6 °F 19.0 °F 25.0 °F 76% 29.66 in 2.5 mi SSW 21.9 mph 36.8 mph N/A Snow Light Snow
4:56 AM 31.8 °F 18.4 °F 24.8 °F 75% 29.66 in 3.0 mi SSW 25.3 mph 36.8 mph N/A Snow Light Snow
5:11 AM 32.0 °F 19.2 °F 25.0 °F 75% 29.66 in 3.0 mi SSW 23.0 mph 35.7 mph N/A Snow Light Snow
5:31 AM 32.0 °F 20.1 °F 24.8 °F 75% 29.65 in 4.0 mi SSW 19.6 mph 39.1 mph N/A Snow Light Snow
5:51 AM 32.0 °F 18.4 °F 24.8 °F 75% 29.65 in 5.0 mi SSW 26.5 mph 38.0 mph N/A   Haze
6:12 AM 32.0 °F 20.5 °F 24.3 °F 73% 29.65 in 5.0 mi SSW 18.4 mph 34.5 mph N/A Snow Light Snow
6:32 AM 32.0 °F 20.8 °F 24.4 °F 74% 29.66 in 7.0 mi SSW 17.3 mph 35.7 mph N/A   Overcast
6:52 AM 31.8 °F 19.9 °F 24.4 °F 74% 29.66 in 4.0 mi SW 19.6 mph 35.7 mph N/A Snow Light Snow
7:12 AM 31.5 °F 20.5 °F 24.6 °F 76% 29.66 in 2.5 mi SW 16.1 mph 33.4 mph N/A Snow Light Snow
7:32 AM 30.0 °F 17.5 °F 25.7 °F 84% 29.66 in 0.8 mi SW 19.6 mph 31.1 mph N/A Snow Snow
7:52 AM 29.3 °F 19.1 °F 26.6 °F 90% 29.67 in 0.8 mi SW 12.7 mph 29.9 mph N/A Snow Snow
8:12 AM 29.3 °F 16.2 °F 27.0 °F 91% 29.67 in 0.8 mi SSW 20.7 mph 29.9 mph N/A Snow Snow
8:32 AM 30.0 °F 17.9 °F 27.3 °F 90% 29.66 in 3.0 mi SW 18.4 mph 26.5 mph N/A Snow Light Snow
8:53 AM 30.9 °F 18.7 °F 25.7 °F 81% 29.66 in 3.0 mi SW 19.6 mph 28.8 mph N/A   Haze
9:13 AM 31.6 °F 19.7 °F 25.3 °F 78% 29.68 in 4.0 mi SW 19.6 mph 27.6 mph N/A   Haze
9:33 AM 31.8 °F 19.0 °F 25.0 °F 76% 29.68 in 5.0 mi SW 23.0 mph 32.2 mph N/A   Haze
9:53 AM 31.6 °F 20.0 °F 25.5 °F 78% 29.70 in 2.5 mi SW 18.4 mph 32.2 mph N/A Snow Light Snow
10:13 AM 30.6 °F 19.4 °F 26.8 °F 86% 29.70 in 1.2 mi SW 16.1 mph 26.5 mph N/A Snow Light Snow
10:33 AM 30.0 °F 19.1 °F 27.5 °F 90% 29.70 in 0.5 mi WSW 15.0 mph 27.6 mph N/A Snow Light Snow
10:53 AM 30.2 °F 20.2 °F 28.0 °F 92% 29.71 in 0.5 mi SW 12.7 mph 23.0 mph N/A Snow Snow
11:13 AM 30.2 °F 22.6 °F 28.2 °F 92% 29.72 in 0.8 mi WSW 8.1 mph 24.2 mph N/A Snow Light Snow
11:33 AM 30.2 °F 19.8 °F 27.9 °F 91% 29.71 in 1.0 mi SW 13.8 mph 20.7 mph N/A Snow Light Snow
11:53 AM 30.6 °F 21.8 °F 27.9 °F 90% 29.71 in 1.0 mi WSW 10.4 mph 25.3 mph N/A Snow Light Snow
12:14 PM 31.1 °F 21.9 °F 27.3 °F 86% 29.71 in 7.0 mi SW 11.5 mph 19.6 mph N/A Snow Light Snow
12:34 PM 31.8 °F 22.3 °F 26.8 °F 82% 29.71 in 10.0 mi WSW 12.7 mph 20.7 mph N/A   Overcast
12:54 PM 32.0 °F 23.0 °F 26.8 °F 81% 29.71 in 10.0 mi WSW 11.5 mph 19.6 mph N/A   Overcast
1:14 PM 32.2 °F 23.2 °F 26.8 °F 80% 29.70 in 10.0 mi WSW 11.5 mph 19.6 mph N/A   Overcast
1:34 PM 32.4 °F 23.5 °F 27.0 °F 80% 29.72 in 10.0 mi West 11.5 mph 20.7 mph N/A   Overcast
1:54 PM 32.0 °F 23.6 °F 26.8 °F 81% 29.73 in 10.0 mi West 10.4 mph 21.9 mph N/A   Overcast
2:14 PM 32.2 °F 22.3 °F 27.0 °F 81% 29.74 in 10.0 mi West 13.8 mph 17.3 mph N/A   Overcast
2:35 PM 32.0 °F 23.0 °F 27.3 °F 83% 29.75 in 4.0 mi West 11.5 mph 18.4 mph N/A Snow Light Snow
2:55 PM 31.8 °F 23.9 °F 27.5 °F 84% 29.75 in 2.0 mi WNW 9.2 mph 19.6 mph N/A Snow Light Snow
3:15 PM 32.0 °F 23.0 °F 27.1 °F 82% 29.76 in 5.0 mi WNW 11.5 mph - N/A Snow Light Snow
3:35 PM 32.0 °F 24.2 °F 26.6 °F 80% 29.77 in 10.0 mi WNW 9.2 mph - N/A   Overcast
3:55 PM 32.0 °F 23.6 °F 26.2 °F 79% 29.79 in 10.0 mi WNW 10.4 mph 16.1 mph N/A   Overcast
4:15 PM 32.0 °F 24.2 °F 26.1 °F 79% 29.81 in 10.0 mi NW 9.2 mph - N/A   Overcast
4:35 PM 31.6 °F 23.7 °F 25.7 °F 79% 29.82 in 10.0 mi NW 9.2 mph - N/A   Overcast
4:55 PM 31.5 °F 25.8 °F 25.2 °F 78% 29.83 in 10.0 mi NW 5.8 mph - N/A   Overcast
5:15 PM 31.3 °F 25.6 °F 25.0 °F 77% 29.85 in 10.0 mi NNW 5.8 mph - N/A   Overcast
5:35 PM 31.1 °F 25.4 °F 24.8 °F 77% 29.87 in 10.0 mi NW 5.8 mph - N/A   Overcast
5:55 PM 31.1 °F 24.5 °F 24.6 °F 77% 29.88 in 10.0 mi NNW 6.9 mph - N/A   Overcast
6:16 PM 30.9 °F 24.3 °F 24.3 °F 76% 29.89 in 10.0 mi NNW 6.9 mph - N/A   Overcast
6:36 PM 30.7 °F 24.9 °F 23.9 °F 76% 29.89 in 10.0 mi NNW 5.8 mph - N/A   Overcast
6:56 PM 30.0 °F 24.1 °F 23.9 °F 78% 29.90 in 10.0 mi North 5.8 mph - N/A   Overcast
7:16 PM 29.5 °F 21.8 °F 23.2 °F 77% 29.92 in 10.0 mi North 8.1 mph - N/A   Overcast
7:36 PM 29.1 °F 21.3 °F 22.6 °F 77% 29.93 in 10.0 mi North 8.1 mph - N/A   Overcast
7:51 PM 28.8 °F 20.2 °F 22.1 °F 76% 29.94 in 10.0 mi North 9.2 mph - N/A   Overcast
8:11 PM 28.2 °F 21.0 °F 21.9 °F 77% 29.95 in 10.0 mi North 6.9 mph - N/A   Overcast
8:31 PM 27.5 °F 19.3 °F 21.7 °F 79% 29.96 in 10.0 mi North 8.1 mph - N/A   Overcast
8:52 PM 27.0 °F 17.3 °F 21.0 °F 78% 29.97 in 10.0 mi North 10.4 mph - N/A   Overcast
9:12 PM 26.2 °F 17.1 °F 20.1 °F 78% 29.98 in 10.0 mi North 9.2 mph - N/A   Overcast
9:32 PM 25.7 °F 17.1 °F 19.4 °F 77% 29.98 in 10.0 mi NNW 8.1 mph - N/A   Overcast
9:52 PM 25.2 °F 15.1 °F 18.7 °F 76% 29.99 in 10.0 mi North 10.4 mph - N/A   Overcast
10:12 PM 25.0 °F 18.1 °F 18.5 °F 76% 30.00 in 10.0 mi NNW 5.8 mph - N/A   Overcast
10:32 PM 24.8 °F 17.9 °F 18.3 °F 76% 30.01 in 10.0 mi NNW 5.8 mph - N/A   Overcast
10:52 PM 24.4 °F 16.5 °F 17.8 °F 76% 30.01 in 10.0 mi NNW 6.9 mph - N/A   Overcast
11:13 PM 24.3 °F 15.4 °F 18.0 °F 77% 30.00 in 10.0 mi NNW 8.1 mph - N/A   Overcast
11:33 PM 24.3 °F 17.3 °F 17.8 °F 76% 30.01 in 10.0 mi North 5.8 mph - N/A   Overcast
11:53 PM 24.3 °F 18.4 °F 18.0 °F 77% 30.01 in 10.0 mi NNW 4.6 mph - N/A   Overcast